Home   Weather   Poitiers   Past weeks
Flag for France

Past Weather in Poitiers, Nouvelle-Aquitaine, France — Yesterday and Last 2 Weeks

Now
61 °F

Mostly cloudy.


Feels Like: 61 °F
Forecast: 60 / 49 °F
Wind: 9 mph from Southwest

Location: Poitiers Airport

Current Time: May 27, 2019 at 11:56:07 am

Latest Report: May 27, 2019 at 11:00 am


Visibility: N/A

Pressure: 29.98 "Hg

Humidity: 83%

Dew Point: 55 °F

Location of PoitiersLocation

Past Weather in Poitiers — Graph

°F

Poitiers Temperature Yesterday

Maximum temperature yesterday: 68 °F (at 2:30 pm)
Minimum temperature yesterday: 52 °F (at 5:00 am)
Average temperature yesterday: 60 °F

High & Low Weather Summary for the Past Weeks

 TemperatureHumidityPressure
High73 °F (May 22, 5:00 pm)100% (May 17, 10:00 pm)30.51 "Hg (May 17, 10:00 pm)
Low41 °F (May 13, 5:30 am)24% (May 14, 2:30 pm)29.62 "Hg (May 17, 5:00 am)
Average58 °F68%30.03 "Hg
* Reported May 12 10:00 am — May 27 10:00 am, Poitiers. Weather by CustomWeather, © 2019

Note: Actual official high and low records may vary slightly from our data, if they occured in-between our weather recording intervals... More about our weather records

Advertising

Poitiers Weather History for the Previous 24 Hours

Scroll right to see more
 ConditionsComfort  
Time TempWeatherWind HumidityBarometerVisibility
10:00 am
Mon, May 27
59 °FMore clouds than sun.7 mph88%29.98 "HgN/A
9:30 am59 °FMostly cloudy.6 mph88%29.98 "HgN/A
9:00 am57 °FMostly cloudy.6 mph94%29.98 "HgN/A
8:30 am57 °FDrizzle. Mostly cloudy.6 mph94%29.98 "HgN/A
8:00 am55 °FMostly cloudy.6 mph94%29.98 "HgN/A
7:30 am55 °FLow clouds.6 mph94%29.98 "HgN/A
7:00 am55 °FOvercast.5 mph94%29.98 "HgN/A
6:30 am55 °FOvercast.5 mph94%29.98 "HgN/A
6:00 am55 °FMostly cloudy.7 mph88%29.98 "HgN/A
5:30 am55 °FLow clouds.6 mph88%29.98 "HgN/A
5:00 am55 °FOvercast.5 mph88%29.98 "HgN/A
4:30 am55 °FLow clouds.5 mph88%30.01 "HgN/A
4:00 am55 °FMostly cloudy.6 mph88%30.01 "HgN/A
3:30 am55 °FMostly cloudy.5 mph94%30.01 "HgN/A
3:00 am55 °FOvercast.7 mph88%30.01 "HgN/A
2:30 am57 °FOvercast.6 mph82%30.01 "HgN/A
2:00 am57 °FOvercast.3 mph82%30.01 "HgN/A
1:30 am57 °FOvercast.7 mph82%30.04 "HgN/A
1:00 am57 °FOvercast.7 mph82%30.04 "HgN/A
12:30 am57 °FOvercast.8 mph82%30.04 "HgN/A
12:00 am59 °FOvercast.7 mph82%30.04 "HgN/A
11:30 pm
Sun, May 26
59 °FOvercast.9 mph77%30.04 "HgN/A
11:00 pm59 °FMostly cloudy.8 mph77%30.04 "HgN/A
10:30 pm59 °FOvercast.8 mph77%30.07 "HgN/A
10:00 pm57 °FPassing clouds.8 mph82%30.04 "HgN/A
9:30 pm59 °FCool.9 mph77%30.04 "HgN/A
9:00 pm61 °FCool.10 mph68%30.04 "HgN/A
8:30 pm63 °FPartly sunny.14 mph68%30.04 "HgN/A
8:00 pm64 °FOvercast.14 mph68%30.04 "HgN/A
7:30 pm64 °FOvercast.10 mph68%30.04 "HgN/A
7:00 pm64 °FMild.14 mph68%30.04 "HgN/A
6:30 pm66 °FMore clouds than sun.10 mph64%30.07 "HgN/A
6:00 pm66 °FMild.12 mph64%30.07 "HgN/A
5:30 pm66 °FMild.12 mph64%30.07 "HgN/A
5:00 pm66 °FMore clouds than sun.13 mph64%30.07 "HgN/A
4:30 pm66 °FOvercast.12 mph64%30.09 "HgN/A
4:00 pm66 °FMild.13 mph60%30.09 "HgN/A
3:30 pm66 °FCloudy.14 mph60%30.09 "HgN/A
3:00 pm68 °FMostly cloudy.15 mph64%30.09 "HgN/A
2:30 pm68 °FCloudy.9 mph60%30.09 "HgN/A
2:00 pm64 °FMild.7 mph73%30.09 "HgN/A
1:30 pm63 °FMore clouds than sun.10 mph77%30.12 "HgN/A
1:00 pm64 °FMostly cloudy.9 mph68%30.12 "HgN/A
12:30 pm64 °FPartly sunny.9 mph68%30.12 "HgN/A
12:00 pm64 °FBroken clouds.6 mph64%30.12 "HgN/A
11:30 am66 °FPartly sunny.6 mph64%30.12 "HgN/A
11:00 am64 °FScattered clouds.6 mph68%30.12 "HgN/A
Weather by CustomWeather, © 2019

See weather overview